Terminal Aerodrome Forecast
Issued by NWS

Home | Current Version | Previous Version | Graphics & Text | Print | Product List | Glossary On
Versions: 1 2 3 4 5 6 7 8 9 10 11 12 13 14 15 16 17 18 19 20 21 22 23 24 25 26 27 28 29 30 31
000
FTUS43 KLOT 160900 AAA
TAFORD
TAF AMD
KORD 160910Z 1609/1712 16008KT P6SM BKN100
     FM161500 17015G25KT P6SM BKN150
     FM161900 17020G30KT P6SM BKN120
     FM170300 18015KT P6SM FEW060 BKN120=

USA.gov is the U.S. government's official web portal to all federal, state and local government web resources and services.